Home   Weather   Faridabad   Past weeks

Flag for India Past Weather in Faridabad, Haryana, India — Yesterday and Last 2 Weeks

Now
54 °F

Fog.


Feels Like: 54 °F
Forecast: 55 / 76 °F
Wind: No wind

Location: New Delhi Palam Airport

Current Time: Dec 3, 2016 at 8:10:54 am

Latest Report: Dec 3, 2016 at 7:30 am


Visibility: 0 mi

Pressure: 30.12 "Hg

Humidity: 88%

Dew Point: 50 °F

Location of FaridabadLocation

Past Weather in Faridabad — Graph

°F

Faridabad Temperature Yesterday

Maximum temperature yesterday: 73 °F (at 3:00 pm)
Minimum temperature yesterday: 54 °F (at 5:30 am)
Average temperature yesterday: 62 °F

High & Low Weather Summary for the Past Weeks

 TemperatureHumidityPressure
High86 °F (Nov 21, 1:30 pm)100% (Dec 1, 9:30 am)30.12 "Hg (Dec 1, 9:30 am)
Low50 °F (Dec 3, 7:00 am)18% (Nov 27, 3:30 pm)29.86 "Hg (Nov 19, 3:30 pm)
Average68 °F55%29.96 "Hg
* Reported Nov 18 6:30 am — Dec 3 7:00 am, Faridabad, Weather by CustomWeather, © 2016

Note: Actual official high and low records may vary slightly from our data, if they occured in-between our weather recording intervals... More about our weather records

Advertising

Faridabad Weather History for the Previous 24 Hours

Scroll right to see more
 ConditionsComfort  
Time TempWeatherWind HumidityBarometerVisibility
7:00 am
Sat, Dec 3
50 °FFog.No wind94%30.09 "Hg1 mi
6:30 am52 °FFog.No wind94%30.09 "Hg1 mi
6:00 am52 °FFog.No wind94%30.07 "Hg1 mi
5:30 am52 °FFog.No wind94%30.07 "Hg1 mi
5:00 am54 °FFog.No wind94%30.07 "Hg1 mi
4:30 am54 °FFog.No wind94%30.07 "Hg0 mi
4:00 am55 °FFog.No wind94%30.07 "Hg0 mi
3:30 am55 °FFog.No wind94%30.07 "Hg0 mi
3:00 am57 °FFog.No wind94%30.07 "Hg0 mi
2:30 am57 °FFog.No wind94%30.07 "Hg0 mi
1:30 am57 °FFog.No wind94%30.07 "Hg0 mi
12:00 am59 °FFog.No wind94%30.07 "Hg1 mi
11:30 pm
Fri, Dec 2
61 °FFog.No wind100%30.07 "Hg1 mi
11:00 pm61 °FFog.No wind94%30.07 "Hg1 mi
9:30 pm63 °FFog.No wind94%30.07 "Hg1 mi
9:00 pm64 °FFog.No wind94%30.07 "Hg1 mi
8:30 pm64 °FFog.No wind94%30.07 "Hg1 mi
8:00 pm64 °FFog.No wind88%30.07 "Hg1 mi
7:30 pm66 °FFog.No wind88%30.07 "Hg1 mi
7:00 pm66 °FFog.No wind88%30.07 "Hg1 mi
6:30 pm66 °FFog.No wind88%30.04 "Hg1 mi
5:30 pm70 °FFog.3 mph78%30.04 "Hg1 mi
5:00 pm72 °FClear.3 mph69%30.04 "Hg1 mi
4:30 pm73 °FClear.5 mph65%30.04 "Hg1 mi
4:00 pm73 °FClear.6 mph69%30.04 "Hg1 mi
3:30 pm73 °FClear.6 mph69%30.04 "Hg1 mi
3:00 pm73 °FClear.6 mph65%30.04 "Hg1 mi
2:30 pm72 °FClear.7 mph69%30.04 "Hg1 mi
2:00 pm72 °FClear.6 mph69%30.04 "Hg1 mi
1:30 pm68 °FFog.6 mph78%30.07 "Hg1 mi
1:00 pm66 °FFog.6 mph83%30.09 "Hg1 mi
12:30 pm64 °FFog.7 mph88%30.09 "Hg1 mi
12:00 pm63 °FFog.5 mph88%30.12 "Hg1 mi
11:30 am63 °FFog.5 mph88%30.12 "Hg1 mi
11:00 am59 °FFog.3 mph94%30.12 "Hg0 mi
10:30 am57 °FFog.3 mph100%30.12 "Hg0 mi
10:00 am57 °FFog.5 mph94%30.12 "Hg0 mi
9:30 am55 °FFog.5 mph100%30.09 "Hg0 mi
9:00 am55 °FFog.5 mph100%30.09 "Hg0 mi
8:30 am55 °FFog.5 mph94%30.09 "Hg0 mi
8:00 am55 °FFog.3 mph94%30.09 "Hg0 mi
Weather by CustomWeather, © 2016

See weather overviewHow to use our weather pages